SRR9211 EINN-EDDK

Flight info

Callsign SRR9211
Flight time N/A
Altitude 41000
Route LUNIG3A LUNIG DCT ENJEX DCT ADHAV DCT AXNEF DCT ZIPWE DCT OZZIL DCT CESQA DCT KOBBI M197 REDFA DCT TACHA DCT PAM L620 SONEB/N0438F230 Z841 GETNI T858 KOPAG KOPAG1K
Aircraft B763/H-SDE3FGHIM3RWXY/LB1

Departure

Time 2026-04-28 10:55
Airport Shannon Airport (EINN)

Arrival

Time N/A
Airport Cologne Bonn Airport (EDDK)
Time Latitude Longitude Altitude Speed Heading
2026-04-28 10:31 52.69137 -8.91506 19 ft 0 kts 179°
2026-04-28 10:43 52.69140 -8.91506 19 ft 2 kts 179°
2026-04-28 10:43 52.69155 -8.91506 19 ft 2 kts 179°
2026-04-28 10:44 52.69170 -8.91507 19 ft 2 kts 178°
2026-04-28 10:44 52.69185 -8.91509 19 ft 2 kts 165°
2026-04-28 10:44 52.69199 -8.91517 19 ft 2 kts 153°
2026-04-28 10:44 52.69211 -8.91530 19 ft 2 kts 142°
2026-04-28 10:45 52.69224 -8.91542 19 ft 2 kts 167°
2026-04-28 10:45 52.69239 -8.91544 19 ft 2 kts 187°
2026-04-28 10:45 52.69253 -8.91537 19 ft 2 kts 206°
2026-04-28 10:45 52.69266 -8.91526 19 ft 2 kts 205°
2026-04-28 10:46 52.69279 -8.91517 19 ft 0 kts 204°
2026-04-28 10:46 52.69279 -8.91516 19 ft 0 kts 204°
2026-04-28 10:48 52.69279 -8.91517 19 ft 0 kts 204°
2026-04-28 10:48 52.69271 -8.91526 19 ft 3 kts 219°
2026-04-28 10:48 52.69257 -8.91584 19 ft 7 kts 276°
2026-04-28 10:48 52.69291 -8.91670 19 ft 10 kts 308°
2026-04-28 10:49 52.69352 -8.91748 19 ft 12 kts 341°
2026-04-28 10:49 52.69426 -8.91836 19 ft 14 kts 300°
2026-04-28 10:49 52.69465 -8.92001 20 ft 16 kts 278°
2026-04-28 10:49 52.69487 -8.92194 20 ft 18 kts 288°
2026-04-28 10:50 52.69553 -8.92381 21 ft 20 kts 313°
2026-04-28 10:50 52.69656 -8.92548 22 ft 21 kts 316°
2026-04-28 10:50 52.69767 -8.92724 24 ft 22 kts 316°
2026-04-28 10:50 52.69882 -8.92912 26 ft 21 kts 315°
2026-04-28 10:51 52.69911 -8.93091 27 ft 17 kts 231°
2026-04-28 10:51 52.69835 -8.93249 29 ft 18 kts 232°
2026-04-28 10:51 52.69756 -8.93419 32 ft 18 kts 232°
2026-04-28 10:51 52.69676 -8.93590 35 ft 19 kts 232°
2026-04-28 10:52 52.69593 -8.93767 39 ft 19 kts 232°
2026-04-28 10:52 52.69509 -8.93944 43 ft 19 kts 232°
2026-04-28 10:52 52.69423 -8.94124 47 ft 20 kts 232°
2026-04-28 10:52 52.69348 -8.94280 49 ft 3 kts 223°
2026-04-28 10:53 52.69329 -8.94276 50 ft 3 kts 157°
2026-04-28 10:53 52.69316 -8.94287 50 ft 2 kts 235°
2026-04-28 10:53 52.69320 -8.94312 50 ft 2 kts 316°
2026-04-28 10:53 52.69337 -8.94307 50 ft 4 kts 39°
2026-04-28 10:54 52.69375 -8.94230 49 ft 13 kts 53°
2026-04-28 10:54 52.69479 -8.94005 44 ft 39 kts 53°
2026-04-28 10:54 52.69781 -8.93359 31 ft 105 kts 51°
2026-04-28 10:54 52.70359 -8.92140 74 ft 159 kts 52°
2026-04-28 10:55 52.71032 -8.90640 714 ft 171 kts 55°
2026-04-28 10:55 52.71694 -8.88997 1591 ft 175 kts 63°
2026-04-28 10:55 52.71990 -8.87000 2274 ft 193 kts 91°
2026-04-28 10:55 52.71627 -8.84707 2621 ft 234 kts 109°
2026-04-28 10:56 52.70910 -8.81987 2963 ft 280 kts 112°
2026-04-28 10:56 52.70131 -8.79132 4540 ft 277 kts 109°
2026-04-28 10:56 52.69525 -8.76272 6215 ft 267 kts 105°
2026-04-28 10:56 52.68933 -8.73484 7695 ft 263 kts 105°
2026-04-28 10:57 52.68321 -8.70641 8879 ft 268 kts 105°
2026-04-28 10:57 52.67687 -8.67735 10047 ft 274 kts 105°
2026-04-28 10:57 52.67043 -8.64799 11120 ft 282 kts 105°
2026-04-28 10:57 52.66356 -8.61670 11887 ft 302 kts 105°
2026-04-28 10:58 52.65611 -8.58305 12686 ft 321 kts 105°
2026-04-28 10:58 52.64835 -8.54810 13451 ft 341 kts 105°
2026-04-28 10:58 52.63989 -8.51010 14212 ft 361 kts 105°
2026-04-28 10:58 52.63111 -8.47074 14964 ft 381 kts 105°
2026-04-28 10:59 52.62177 -8.42915 16057 ft 390 kts 105°
2026-04-28 10:59 52.61243 -8.38756 17133 ft 398 kts 105°
2026-04-28 10:59 52.60276 -8.34457 18230 ft 404 kts 105°
2026-04-28 10:59 52.59295 -8.30100 19236 ft 411 kts 105°
2026-04-28 11:00 52.58306 -8.25712 20196 ft 418 kts 105°
2026-04-28 11:00 52.57291 -8.21228 21166 ft 423 kts 105°
2026-04-28 11:00 52.56256 -8.16658 22094 ft 429 kts 105°
2026-04-28 11:00 52.55224 -8.12114 23031 ft 434 kts 105°
2026-04-28 11:01 52.54156 -8.07417 23846 ft 440 kts 105°
2026-04-28 11:01 52.53090 -8.02742 24712 ft 445 kts 105°
2026-04-28 11:01 52.51989 -7.97931 25560 ft 450 kts 105°
2026-04-28 11:01 52.50886 -7.93117 26266 ft 457 kts 105°
2026-04-28 11:02 52.49765 -7.88235 27084 ft 461 kts 105°
2026-04-28 11:02 52.48630 -7.83303 27762 ft 467 kts 105°
2026-04-28 11:02 52.47478 -7.78307 28494 ft 471 kts 105°
2026-04-28 11:02 52.46315 -7.73277 29168 ft 476 kts 105°
2026-04-28 11:03 52.45147 -7.68248 30041 ft 474 kts 104°
2026-04-28 11:03 52.43978 -7.63222 30908 ft 472 kts 104°
2026-04-28 11:03 52.42805 -7.58191 31849 ft 468 kts 104°
2026-04-28 11:03 52.41656 -7.53270 32728 ft 465 kts 104°
2026-04-28 11:04 52.40501 -7.48337 33585 ft 461 kts 104°
2026-04-28 11:04 52.39370 -7.43514 34438 ft 456 kts 104°
2026-04-28 11:04 52.38239 -7.38699 35124 ft 453 kts 104°
2026-04-28 11:04 52.37117 -7.33928 35616 ft 454 kts 105°
2026-04-28 11:05 52.35973 -7.29080 36199 ft 452 kts 105°
2026-04-28 11:05 52.34853 -7.24345 36760 ft 450 kts 105°
2026-04-28 11:05 52.33725 -7.19588 37300 ft 450 kts 105°
2026-04-28 11:06 52.31453 -7.10047 37377 ft 447 kts 104°
2026-04-28 11:06 52.29213 -7.00677 37384 ft 446 kts 105°
2026-04-28 11:07 52.26949 -6.91245 37380 ft 447 kts 104°
2026-04-28 11:07 52.24675 -6.81810 37383 ft 447 kts 105°
2026-04-28 11:08 52.22414 -6.72467 37373 ft 446 kts 104°
2026-04-28 11:08 52.20123 -6.63042 37374 ft 448 kts 104°
2026-04-28 11:09 52.17832 -6.53662 37367 ft 447 kts 104°
2026-04-28 11:09 52.15537 -6.44299 37373 ft 446 kts 104°
2026-04-28 11:10 52.13232 -6.34935 37375 ft 448 kts 105°
2026-04-28 11:10 52.10911 -6.25548 37373 ft 448 kts 105°
2026-04-28 11:11 52.08589 -6.16198 37372 ft 446 kts 105°
2026-04-28 11:11 52.06254 -6.06832 37371 ft 448 kts 105°
2026-04-28 11:12 52.04214 -5.97447 37346 ft 440 kts 97°
2026-04-28 11:12 52.02703 -5.87821 37374 ft 441 kts 98°
2026-04-28 11:13 52.01118 -5.78316 37356 ft 440 kts 98°
2026-04-28 11:13 51.99493 -5.68806 37361 ft 439 kts 98°
2026-04-28 11:14 51.97849 -5.59305 37350 ft 437 kts 98°
2026-04-28 11:14 51.96192 -5.49810 37331 ft 438 kts 98°
2026-04-28 11:15 51.94529 -5.40348 37342 ft 440 kts 98°
2026-04-28 11:15 51.92856 -5.30889 37346 ft 438 kts 99°
2026-04-28 11:16 51.91161 -5.21412 37338 ft 437 kts 98°
2026-04-28 11:16 51.90062 -5.11861 37340 ft 434 kts 94°
2026-04-28 11:17 51.89040 -5.02624 37303 ft 434 kts 94°
2026-04-28 11:17 51.87943 -4.93091 37338 ft 433 kts 94°
2026-04-28 11:18 51.86823 -4.83559 37331 ft 433 kts 94°
2026-04-28 11:18 51.85686 -4.74017 37321 ft 434 kts 95°
2026-04-28 11:19 51.84532 -4.64423 37341 ft 435 kts 95°
2026-04-28 11:19 51.83371 -4.54847 37333 ft 436 kts 95°
2026-04-28 11:20 51.82201 -4.45272 37324 ft 437 kts 95°
2026-04-28 11:20 51.81021 -4.35693 37326 ft 435 kts 95°
2026-04-28 11:21 51.79839 -4.26147 37311 ft 437 kts 96°
2026-04-28 11:21 51.78633 -4.16496 37317 ft 439 kts 96°
2026-04-28 11:22 51.77422 -4.06848 37299 ft 439 kts 96°
2026-04-28 11:22 51.76205 -3.97246 37296 ft 438 kts 96°
2026-04-28 11:23 51.74983 -3.87664 37309 ft 440 kts 96°
2026-04-28 11:23 51.73746 -3.78033 37323 ft 441 kts 96°
2026-04-28 11:23 51.73127 -3.73226 37158 ft 441 kts 96°
2026-04-28 11:24 51.72499 -3.68396 37413 ft 436 kts 96°
2026-04-28 11:24 51.71256 -3.58824 37307 ft 440 kts 96°
2026-04-28 11:25 51.70529 -3.49139 37329 ft 437 kts 90°
2026-04-28 11:25 51.69975 -3.39482 37309 ft 435 kts 90°
2026-04-28 11:26 51.69405 -3.29754 37330 ft 438 kts 91°
2026-04-28 11:26 51.68823 -3.20026 37302 ft 435 kts 91°
2026-04-28 11:27 51.68235 -3.10359 37311 ft 436 kts 91°
2026-04-28 11:27 51.67639 -3.00663 37334 ft 437 kts 91°
2026-04-28 11:28 51.67031 -2.90924 37308 ft 439 kts 91°
2026-04-28 11:28 51.66412 -2.81147 37304 ft 439 kts 91°
2026-04-28 11:29 51.65790 -2.71442 37297 ft 438 kts 91°
2026-04-28 11:29 51.65157 -2.61702 37281 ft 439 kts 92°
2026-04-28 11:30 51.64513 -2.51907 37312 ft 441 kts 91°
2026-04-28 11:30 51.64117 -2.37328 37311 ft 436 kts 83°
2026-04-28 11:31 51.64397 -2.27587 37315 ft 439 kts 84°
2026-04-28 11:31 51.64676 -2.17814 37295 ft 437 kts 84°
2026-04-28 11:32 51.64947 -2.08089 37314 ft 437 kts 84°
2026-04-28 11:32 51.65214 -1.98319 37306 ft 438 kts 85°
2026-04-28 11:33 51.65473 -1.88546 37312 ft 438 kts 84°
2026-04-28 11:33 51.65724 -1.78764 37317 ft 439 kts 84°
2026-04-28 11:34 51.65968 -1.68955 37315 ft 439 kts 84°
2026-04-28 11:34 51.66202 -1.59198 37294 ft 438 kts 84°
2026-04-28 11:35 51.66428 -1.49457 37295 ft 439 kts 85°
2026-04-28 11:35 51.66647 -1.39638 37291 ft 439 kts 85°
2026-04-28 11:36 51.66856 -1.29920 37298 ft 440 kts 86°
2026-04-28 11:36 51.67061 -1.20036 37300 ft 440 kts 85°
2026-04-28 11:37 51.67255 -1.10243 37284 ft 439 kts 85°
2026-04-28 11:37 51.67442 -1.00429 37292 ft 440 kts 85°
2026-04-28 11:38 51.67619 -0.90656 37289 ft 440 kts 86°
2026-04-28 11:38 51.67788 -0.80928 37298 ft 440 kts 86°
2026-04-28 11:39 51.67949 -0.71143 37287 ft 441 kts 86°
2026-04-28 11:39 51.68103 -0.61295 37155 ft 441 kts 86°
2026-04-28 11:40 51.68177 -0.56382 37306 ft 439 kts 86°
2026-04-28 11:40 51.68250 -0.51447 37283 ft 441 kts 86°
2026-04-28 11:40 51.68387 -0.41594 37298 ft 442 kts 86°
2026-04-28 11:41 51.68516 -0.31778 37310 ft 442 kts 86°
2026-04-28 11:41 51.68639 -0.21883 37303 ft 441 kts 87°
2026-04-28 11:42 51.69281 -0.12165 37296 ft 439 kts 73°
2026-04-28 11:42 51.71048 -0.02752 37283 ft 440 kts 72°
2026-04-28 11:43 51.72736 0.06691 37297 ft 438 kts 73°
2026-04-28 11:43 51.74383 0.16167 37287 ft 437 kts 73°
2026-04-28 11:44 51.75997 0.25593 37295 ft 439 kts 73°
2026-04-28 11:44 51.77612 0.35112 37289 ft 440 kts 73°
2026-04-28 11:45 51.79201 0.44549 37298 ft 439 kts 73°
2026-04-28 11:45 51.80796 0.54074 37302 ft 440 kts 74°
2026-04-28 11:46 51.82376 0.63569 37280 ft 438 kts 73°
2026-04-28 11:46 51.83951 0.73088 37292 ft 439 kts 75°
2026-04-28 11:47 51.85521 0.82624 37285 ft 441 kts 75°
2026-04-28 11:47 51.87074 0.92111 37291 ft 439 kts 75°
2026-04-28 11:48 51.88642 1.01750 37288 ft 442 kts 75°
2026-04-28 11:48 51.90185 1.11287 37287 ft 440 kts 75°
2026-04-28 11:49 51.91725 1.20863 37279 ft 441 kts 75°
2026-04-28 11:49 51.93263 1.30476 37278 ft 441 kts 75°
2026-04-28 11:50 51.94787 1.40057 37265 ft 440 kts 75°
2026-04-28 11:50 51.96305 1.49662 37267 ft 443 kts 75°
2026-04-28 11:51 51.97816 1.59275 37267 ft 442 kts 75°
2026-04-28 11:51 51.99328 1.68949 37272 ft 443 kts 76°
2026-04-28 11:52 52.00825 1.78589 37280 ft 442 kts 76°
2026-04-28 11:52 52.02320 1.88262 37288 ft 442 kts 76°
2026-04-28 11:53 52.03793 1.97860 37289 ft 441 kts 76°
2026-04-28 11:53 52.05273 2.07563 37278 ft 444 kts 76°
2026-04-28 11:54 52.06745 2.17266 37264 ft 444 kts 76°
2026-04-28 11:54 52.08199 2.26915 37281 ft 443 kts 76°
2026-04-28 11:55 52.09656 2.36638 37283 ft 444 kts 76°
2026-04-28 11:55 52.11102 2.46345 37288 ft 444 kts 76°
2026-04-28 11:56 52.12823 2.55951 37281 ft 443 kts 72°
2026-04-28 11:56 52.14598 2.65237 37277 ft 445 kts 73°
2026-04-28 11:57 52.16423 2.74854 37263 ft 444 kts 73°
2026-04-28 11:57 52.18242 2.84497 37282 ft 445 kts 73°
2026-04-28 11:58 52.20037 2.94063 37274 ft 444 kts 73°
2026-04-28 11:58 52.21827 3.03656 37274 ft 444 kts 73°
2026-04-28 11:59 52.23612 3.13273 37281 ft 445 kts 73°
2026-04-28 11:59 52.25319 3.22939 37274 ft 445 kts 78°
2026-04-28 12:00 52.25995 3.32946 37271 ft 447 kts 84°
2026-04-28 12:00 52.26526 3.43039 37261 ft 447 kts 84°
2026-04-28 12:01 52.27026 3.53119 37270 ft 446 kts 84°
2026-04-28 12:01 52.27509 3.63188 37265 ft 448 kts 84°
2026-04-28 12:02 52.27981 3.73270 37276 ft 448 kts 85°
2026-04-28 12:02 52.28446 3.83406 37279 ft 450 kts 85°
2026-04-28 12:03 52.28902 3.93573 37270 ft 450 kts 85°
2026-04-28 12:03 52.29351 4.03761 37271 ft 451 kts 85°
2026-04-28 12:04 52.29793 4.14017 37274 ft 451 kts 85°
2026-04-28 12:04 52.30225 4.24241 37271 ft 452 kts 85°
2026-04-28 12:05 52.30648 4.34462 37269 ft 453 kts 85°
2026-04-28 12:05 52.31063 4.44704 37266 ft 454 kts 85°
2026-04-28 12:06 52.31470 4.54969 37270 ft 453 kts 85°
2026-04-28 12:06 52.31866 4.65168 37265 ft 454 kts 86°
2026-04-28 12:07 52.32249 4.75267 37270 ft 455 kts 85°
2026-04-28 12:07 52.32593 4.84539 37260 ft 455 kts 85°
2026-04-28 12:08 52.33017 4.96249 37259 ft 455 kts 85°
2026-04-28 12:08 52.33126 5.06593 37255 ft 456 kts 95°
2026-04-28 12:09 52.31522 5.16535 37262 ft 461 kts 108°
2026-04-28 12:09 52.29538 5.25367 37252 ft 463 kts 109°
2026-04-28 12:10 52.25007 5.44615 37027 ft 468 kts 109°
2026-04-28 12:11 52.23858 5.49408 37384 ft 462 kts 109°
2026-04-28 12:11 52.22683 5.54290 37226 ft 466 kts 109°
2026-04-28 12:11 52.20317 5.64072 37251 ft 466 kts 109°